Time,TemperatureF,DewpointF,PressureIn,WindDirection,WindDirectionDegrees,WindSpeedMPH,WindSpeedGustMPH,Humidity,HourlyPrecipIn,Conditions,Clouds,dailyrainin,SoftwareType,DateUTC
2013-08-27 00:01:00,75.0,69.0,-100.00,SSE,160,1.0,2.0,83,-99.99,,,-99.99,,2013-08-27 05:01:00,
2013-08-27 00:23:00,75.0,69.0,-100.00,SSE,160,1.0,2.0,83,-99.99,,,-99.99,,2013-08-27 05:23:00,
2013-08-27 00:35:00,75.0,69.0,-100.00,SSE,160,1.0,2.0,83,-99.99,,,-99.99,,2013-08-27 05:35:00,
2013-08-27 00:43:00,75.0,69.0,-100.00,SSE,160,1.0,2.0,83,-99.99,,,-99.99,,2013-08-27 05:43:00,
2013-08-27 00:52:00,75.0,69.0,-100.00,SSE,160,1.0,2.0,83,-99.99,,,-99.99,,2013-08-27 05:52:00,
2013-08-27 01:00:00,74.0,69.0,-100.00,SSE,150,1.0,4.0,83,-99.99,,,-99.99,,2013-08-27 06:00:00,
2013-08-27 01:22:00,74.0,69.0,-100.00,SSE,150,1.0,4.0,83,-99.99,,,-99.99,,2013-08-27 06:22:00,
2013-08-27 01:32:00,74.0,69.0,-100.00,SSE,150,1.0,4.0,83,-99.99,,,-99.99,,2013-08-27 06:32:00,
2013-08-27 01:42:00,74.0,69.0,-100.00,SSE,150,1.0,4.0,83,-99.99,,,-99.99,,2013-08-27 06:42:00,
2013-08-27 01:52:00,74.0,69.0,-100.00,SSE,150,1.0,4.0,83,-99.99,,,-99.99,,2013-08-27 06:52:00,
2013-08-27 02:00:00,72.0,68.0,-100.00,SSE,155,1.0,2.0,87,-99.99,,,-99.99,,2013-08-27 07:00:00,
2013-08-27 02:22:00,72.0,68.0,-100.00,SSE,155,1.0,2.0,87,-99.99,,,-99.99,,2013-08-27 07:22:00,
2013-08-27 02:32:00,72.0,68.0,-100.00,SSE,155,1.0,2.0,87,-99.99,,,-99.99,,2013-08-27 07:32:00,
2013-08-27 02:42:00,72.0,68.0,-100.00,SSE,155,1.0,2.0,87,-99.99,,,-99.99,,2013-08-27 07:42:00,
2013-08-27 02:52:00,72.0,68.0,-100.00,SSE,155,1.0,2.0,87,-99.99,,,-99.99,,2013-08-27 07:52:00,
2013-08-27 03:01:00,73.0,68.0,-100.00,SSW,195,0.0,4.0,86,-99.99,,,-99.99,,2013-08-27 08:01:00,
2013-08-27 03:22:00,73.0,68.0,-100.00,SSW,195,0.0,4.0,86,-99.99,,,-99.99,,2013-08-27 08:22:00,
2013-08-27 03:33:00,73.0,68.0,-100.00,SSW,195,0.0,4.0,86,-99.99,,,-99.99,,2013-08-27 08:33:00,
2013-08-27 03:42:00,73.0,68.0,-100.00,SSW,195,0.0,4.0,86,-99.99,,,-99.99,,2013-08-27 08:42:00,
2013-08-27 03:52:00,73.0,68.0,-100.00,SSW,195,0.0,4.0,86,-99.99,,,-99.99,,2013-08-27 08:52:00,
2013-08-27 04:00:00,72.0,68.0,-100.00,SSW,210,0.0,2.0,86,-99.99,,,-99.99,,2013-08-27 09:00:00,
2013-08-27 04:22:00,72.0,68.0,-100.00,SSW,210,0.0,2.0,86,-99.99,,,-99.99,,2013-08-27 09:22:00,
2013-08-27 04:35:00,72.0,68.0,-100.00,SSW,210,0.0,2.0,86,-99.99,,,-99.99,,2013-08-27 09:35:00,
2013-08-27 04:43:00,72.0,68.0,-100.00,SSW,210,0.0,2.0,86,-99.99,,,-99.99,,2013-08-27 09:43:00,
2013-08-27 04:54:00,72.0,68.0,-100.00,SSW,210,0.0,2.0,86,-99.99,,,-99.99,,2013-08-27 09:54:00,
2013-08-27 05:01:00,71.0,67.0,-100.00,South,190,0.0,2.0,88,-99.99,,,-99.99,,2013-08-27 10:01:00,
2013-08-27 05:25:00,71.0,67.0,-100.00,South,190,0.0,2.0,88,-99.99,,,-99.99,,2013-08-27 10:25:00,
2013-08-27 05:33:00,71.0,67.0,-100.00,South,190,0.0,2.0,88,-99.99,,,-99.99,,2013-08-27 10:33:00,
2013-08-27 05:43:00,71.0,67.0,-100.00,South,190,0.0,2.0,88,-99.99,,,-99.99,,2013-08-27 10:43:00,
2013-08-27 05:53:00,71.0,67.0,-100.00,South,190,0.0,2.0,88,-99.99,,,-99.99,,2013-08-27 10:53:00,
2013-08-27 06:00:00,71.0,67.0,-100.00,West,265,1.0,4.0,87,-99.99,,,-99.99,,2013-08-27 11:00:00,
2013-08-27 06:22:00,71.0,67.0,-100.00,West,265,1.0,4.0,87,-99.99,,,-99.99,,2013-08-27 11:22:00,
2013-08-27 06:33:00,71.0,67.0,-100.00,West,265,1.0,4.0,87,-99.99,,,-99.99,,2013-08-27 11:33:00,
2013-08-27 06:42:00,71.0,67.0,-100.00,West,265,1.0,4.0,87,-99.99,,,-99.99,,2013-08-27 11:42:00,
2013-08-27 06:52:00,71.0,67.0,-100.00,West,265,1.0,4.0,87,-99.99,,,-99.99,,2013-08-27 11:52:00,
2013-08-27 07:01:00,72.0,66.0,-100.00,WNW,290,2.0,7.0,81,-99.99,,,-99.99,,2013-08-27 12:01:00,
2013-08-27 07:22:00,72.0,66.0,-100.00,WNW,290,2.0,7.0,81,-99.99,,,-99.99,,2013-08-27 12:22:00,
2013-08-27 07:32:00,72.0,66.0,-100.00,WNW,290,2.0,7.0,81,-99.99,,,-99.99,,2013-08-27 12:32:00,
2013-08-27 07:42:00,72.0,66.0,-100.00,WNW,290,2.0,7.0,81,-99.99,,,-99.99,,2013-08-27 12:42:00,
2013-08-27 07:52:00,72.0,66.0,-100.00,WNW,290,2.0,7.0,81,-99.99,,,-99.99,,2013-08-27 12:52:00,
2013-08-27 08:00:00,77.0,66.0,-100.00,SW,225,3.0,9.0,69,-99.99,,,-99.99,,2013-08-27 13:00:00,
2013-08-27 08:22:00,77.0,66.0,-100.00,SW,225,3.0,9.0,69,-99.99,,,-99.99,,2013-08-27 13:22:00,
2013-08-27 08:32:00,77.0,66.0,-100.00,SW,225,3.0,9.0,69,-99.99,,,-99.99,,2013-08-27 13:32:00,
2013-08-27 08:42:00,77.0,66.0,-100.00,SW,225,3.0,9.0,69,-99.99,,,-99.99,,2013-08-27 13:42:00,
2013-08-27 08:52:00,77.0,66.0,-100.00,SW,225,3.0,9.0,69,-99.99,,,-99.99,,2013-08-27 13:52:00,
2013-08-27 09:01:00,80.0,67.0,-100.00,SSE,160,2.0,9.0,65,-99.99,,,-99.99,,2013-08-27 14:01:00,
2013-08-27 09:22:00,80.0,67.0,-100.00,SSE,160,2.0,9.0,65,-99.99,,,-99.99,,2013-08-27 14:22:00,
2013-08-27 09:32:00,80.0,67.0,-100.00,SSE,160,2.0,9.0,65,-99.99,,,-99.99,,2013-08-27 14:32:00,
2013-08-27 09:42:00,80.0,67.0,-100.00,SSE,160,2.0,9.0,65,-99.99,,,-99.99,,2013-08-27 14:42:00,
2013-08-27 09:53:00,80.0,67.0,-100.00,SSE,160,2.0,9.0,65,-99.99,,,-99.99,,2013-08-27 14:53:00,
2013-08-27 10:01:00,82.0,67.0,-100.00,SW,235,3.0,7.0,61,-99.99,,,-99.99,,2013-08-27 15:01:00,
2013-08-27 10:22:00,82.0,67.0,-100.00,SW,235,3.0,7.0,61,-99.99,,,-99.99,,2013-08-27 15:22:00,
2013-08-27 10:35:00,82.0,67.0,-100.00,SW,235,3.0,7.0,61,-99.99,,,-99.99,,2013-08-27 15:35:00,
2013-08-27 10:45:00,82.0,67.0,-100.00,SW,235,3.0,7.0,61,-99.99,,,-99.99,,2013-08-27 15:45:00,
2013-08-27 10:58:00,82.0,67.0,-100.00,SW,235,3.0,7.0,61,-99.99,,,-99.99,,2013-08-27 15:58:00,